Location: City of Moscow
(46.7306°N, 116.9989°W)
Time: 12:24:33
(UTC+00:00)

ACS3 Solar Sail - Pass Details

Date: 24 February 2026
Orbit: 887 x 973 km, 97.2° (Epoch: 8 March)

Event Time Altitude Azimuth Distance (km) Brightness Sun altitude
Rises 09:50:12 0° 12° (NNE) 3,507 5.3 -46.0°
Reaches altitude 10° 09:52:36 10° 12° (NNE) 2,562 4.5 -45.8°
Enters shadow 09:52:55 12° 13° (NNE) 2,440 4.3 -45.7°
